This is the latest recevied weather packets stored in our database for station/object VA3WWD-2. If no packets are shown the sender has not sent any weather packets the latest 10 day(s).
| Time | Temp. | Humidity | Pressure | Rain* | Wind** | Luminosity | Snow |
|---|---|---|---|---|---|---|---|
| 1778106038 | 6.67° C | 31% | - | 0 mm | 0 m/s | - | - |
| 1778105740 | 6.67° C | 29% | - | 0 mm | 0 m/s | - | - |
| 1778105442 | 6.67° C | 30% | - | 0 mm | 0 m/s | - | - |
| 1778104843 | 7.22° C | 30% | - | 0 mm | 0 m/s | - | - |
| 1778104545 | 6.11° C | 32% | - | 0 mm | 0 m/s | - | - |
| 1778103946 | 7.22° C | 32% | - | 0 mm | 0 m/s | - | - |
| 1778103648 | 7.22° C | 30% | - | 0 mm | 0 m/s | - | - |
| 1778103347 | 7.22° C | 32% | - | 0 mm | 0 m/s | - | - |
| 1778103049 | 6.67° C | 33% | - | 0 mm | 0 m/s | - | - |
| 1778102751 | 6.67° C | 34% | - | 0 mm | 0 m/s | - | - |
| 1778102450 | 7.22° C | 32% | - | 0 mm | 0 m/s | - | - |
| 1778102152 | 7.22° C | 33% | - | 0 mm | 0 m/s | - | - |
| 1778101854 | 7.78° C | 37% | - | 0 mm | 0 m/s | - | - |
| 1778101553 | 7.78° C | 33% | - | 0 mm | 0 m/s | - | - |
| 1778100957 | 7.22° C | 34% | - | 0 mm | 0 m/s | - | - |
| 1778100656 | 7.78° C | 34% | - | 0 mm | 0 m/s | - | - |
| 1778100358 | 7.78° C | 36% | - | 0 mm | 0 m/s | - | - |
| 1778100060 | 7.78° C | 38% | - | 0 mm | 0 m/s | - | - |
| 1778099759 | 6.67° C | 36% | - | 0 mm | 0 m/s | - | - |
| 1778099462 | 7.22° C | 34% | - | 0 mm | 0 m/s | - | - |
| 1778099163 | 6.67° C | 37% | - | 0 mm | 0 m/s | - | - |
| 1778098862 | 7.78° C | 38% | - | 0 mm | 0 m/s | - | - |
| 1778098564 | 7.22° C | 34% | - | 0 mm | 0 m/s | - | - |
| 1778098267 | 7.78° C | 38% | - | 0 mm | 0 m/s | - | - |
| 1778097668 | 8.33° C | 36% | - | 0 mm | 0 m/s | - | - |
* Rain latest hour (hover to see other rain measurements)
** Current wind speed in m/s (hover to see current wind gust speed)